Wind_Speed
8 6 9 10 4 3 5 5 7 3 4 5 10 13 9 15 17 19 23 25 27 28 26 25 27 25 24 22 22 21 23 21 19 17 18 18 18 14 11 9 7 8 8 6
5 10 9 4 6 2 2 4 8 2 4 4 5 14 8 18 24 27 28 28 29 23 23 29 28 27 27 25 24 24 22 21 21 18 17 16 17 15 11 11 10 9 9 10
13 2 10 7 8 6 4 7 8 6 3 1 4 9 7 10 16 20 25 28 26 28 26 25 30 32 29 28 26 25 24 22 22 21 17 15 14 16 14 12 11 9 9 9
9 4 4 7 10 7 10 4 9 4 3 4 2 7 3 9 16 17 27 30 32 31 29 27 28 32 34 31 28 26 24 23 23 22 21 17 16 17 15 13 8 8 9 6
8 6 11 11 10 7 3 3 4 4 3 4 4 4 1 6 12 20 25 31 34 36 35 33 32 32 32 29 30 30 29 27 26 24 24 20 19 15 16 13 11 9 8 8
8 2 5 15 4 7 12 7 6 3 1 5 2 5 3 6 9 12 24 32 34 35 35 34 33 32 33 31 30 30 32 30 27 25 26 25 22 18 17 14 10 9 8 10
1 4 1 2 9 8 5 8 2 3 3 3 2 4 10 9 9 11 13 28 35 34 33 34 33 34 37 35 31 28 31 33 30 28 27 26 25 22 18 14 9 8 9 9
9 7 9 7 12 7 11 8 5 5 4 3 2 6 5 1 3 7 11 18 22 32 35 34 35 37 38 35 33 29 30 33 32 30 28 27 26 25 21 18 14 10 7 6
6 6 2 7 11 11 7 8 4 3 1 4 3 6 14 10 7 7 11 14 18 26 33 36 34 33 34 35 34 29 29 31 32 32 29 29 28 28 24 19 15 11 9 5
9 9 5 1 5 3 10 11 5 2 5 7 5 6 9 16 15 6 6 13 19 20 24 29 31 34 33 33 31 29 28 27 28 31 29 27 28 27 25 21 17 12 11 9
7 9 4 4 9 12 6 6 1 2 3 6 9 8 9 15 15 14 7 11 17 22 23 27 30 35 37 33 33 31 31 31 30 29 27 26 25 26 24 22 19 13 12 12
6 3 9 16 2 3 13 18 16 9 7 3 5 9 14 15 13 12 9 10 17 21 20 23 26 29 33 36 34 34 33 33 32 28 25 23 22 24 25 23 18 15 13 11
7 5 4 5 4 3 6 8 10 7 4 12 12 10 4 7 11 15 13 9 14 20 19 22 23 30 35 37 36 35 34 32 33 32 28 26 24 23 25 23 19 16 13 11
5 4 6 6 2 1 7 10 14 16 10 14 12 18 19 14 11 10 10 7 10 16 22 22 23 29 34 35 37 39 36 34 32 31 31 29 26 24 22 21 19 17 13 12
3 5 4 6 7 8 12 9 12 13 19 12 18 8 15 15 10 13 8 5 10 16 22 28 28 32 33 34 34 38 40 37 33 32 31 29 26 25 23 21 18 17 15 13
5 1 1 4 7 4 8 14 15 18 12 16 14 8 14 20 11 14 14 10 13 19 25 29 31 33 34 33 33 34 39 39 34 32 30 29 27 26 25 22 19 18 17 17
5 3 2 6 2 6 7 11 17 16 16 15 9 14 5 6 6 13 15 15 16 20 25 27 27 31 33 35 33 32 36 37 35 31 30 29 27 26 27 24 21 20 19 20
6 4 3 4 5 11 2 3 7 14 11 15 8 10 10 12 18 20 18 15 20 18 23 26 27 28 29 30 32 31 33 34 33 30 28 27 26 26 27 25 23 21 21 22
15 6 4 5 8 6 5 3 2 1 4 12 11 14 17 18 12 18 18 18 21 22 18 26 25 27 25 28 30 31 33 34 33 31 28 26 26 27 28 27 25 23 23 23
7 11 5 3 10 13 7 1 1 7 6 11 13 14 17 17 4 6 15 13 17 20 19 18 27 27 26 27 28 31 34 34 33 30 28 28 27 27 28 27 27 25 25 24
5 5 14 12 9 7 1 12 3 8 1 16 16 17 17 8 12 29 29 24 12 15 15 17 24 28 25 29 32 33 35 35 31 30 30 30 30 29 28 27 28 27 27 26
7 6 6 9 9 14 13 7 5 7 7 13 16 16 21 24 26 27 18 17 12 11 15 13 15 21 25 30 34 36 38 35 33 34 33 33 32 32 31 30 29 30 29 29
7 5 3 4 2 3 5 7 6 11 14 14 19 21 22 24 22 17 5 3 4 8 13 14 14 19 24 27 31 37 38 37 37 35 34 35 34 34 35 33 31 31 31 31
2 3 4 3 3 5 9 3 11 16 14 17 16 20 21 20 18 9 2 8 10 10 11 9 9 11 16 21 26 29 33 37 39 37 35 36 38 36 36 35 35 34 34 34
4 8 3 6 5 10 11 12 17 21 14 17 17 17 18 16 13 5 3 11 17 16 14 11 8 4 2 9 17 22 28 32 36 37 39 38 38 39 38 37 38 39 38 37
7 5 4 2 4 5 11 18 20 13 15 16 17 20 16 12 9 2 7 12 17 19 18 17 15 9 1 5 12 21 25 31 32 36 38 37 37 39 40 41 40 39 38 37
Wind_Direction
182 200 201 208 203 182 207 233 244 182 172 232 240 260 215 192 202 200 199 197 204 208 205 207 210 213 215 221 216 209 210 213 212 211 213 216 217 211 216 203 201 205 209 212
159 222 218 163 150 163 189 255 260 229 148 215 274 269 253 191 206 205 201 202 208 209 206 207 215 219 217 216 218 215 214 216 214 217 222 226 219 217 220 216 224 229 229 231
223 164 170 167 168 188 223 256 283 288 141 208 276 274 224 209 214 215 215 213 212 210 209 208 209 216 215 216 215 219 218 219 218 218 223 228 220 218 216 211 225 234 243 246
247 198 227 189 200 228 269 232 255 228 237 274 294 298 264 202 212 214 216 212 213 214 214 213 208 214 216 213 215 218 224 224 223 220 221 224 223 219 219 217 225 237 246 241
213 189 204 226 230 192 261 48 119 168 193 294 201 259 241 194 220 226 223 219 216 214 213 212 211 213 215 218 221 219 222 224 222 220 220 220 227 231 227 224 229 241 257 264
222 244 210 233 131 189 139 111 100 124 191 262 278 247 250 192 217 228 220 222 221 219 218 217 217 215 221 224 227 225 221 222 220 217 218 220 224 228 225 228 227 241 257 257
176 219 265 195 108 126 177 173 221 256 207 260 72 234 267 230 206 226 226 223 221 216 215 217 213 213 220 224 226 228 222 218 216 214 216 218 219 226 222 228 232 245 257 279
219 217 217 175 217 194 198 232 223 235 250 334 162 239 248 195 225 244 246 232 221 211 211 210 211 214 216 218 222 225 221 213 215 216 216 217 218 224 228 233 236 243 248 254
185 232 235 221 208 202 169 211 268 225 136 265 263 267 279 285 242 216 235 219 213 208 206 208 209 210 214 214 216 218 220 212 216 218 217 219 219 223 226 231 233 232 229 231
213 256 209 36 146 78 213 156 186 221 233 249 213 269 260 293 287 259 226 223 218 207 207 208 208 211 215 213 211 209 214 206 208 219 220 220 222 224 224 227 227 226 234 238
178 228 190 173 202 206 169 196 106 192 237 260 269 261 242 255 266 274 260 258 218 206 204 202 206 214 215 213 209 205 210 207 209 216 221 222 222 224 221 223 222 226 234 238
183 193 219 217 74 271 220 217 216 233 220 239 283 262 267 258 268 267 257 263 222 210 202 202 205 207 208 213 210 206 211 207 209 207 212 220 221 224 223 221 220 222 232 236
168 205 200 179 153 166 214 197 225 243 255 236 251 261 263 269 248 260 256 245 220 206 202 204 202 209 210 214 212 208 210 215 215 213 213 216 221 221 222 220 221 216 226 240
199 179 243 249 116 81 196 199 207 214 228 244 240 257 275 269 261 260 249 232 208 209 198 199 204 210 212 214 214 209 208 213 215 215 216 218 217 222 220 218 220 217 223 233
305 233 205 252 251 250 253 235 194 210 229 218 251 223 264 268 266 283 272 197 192 201 200 203 207 212 215 218 218 214 211 212 216 215 218 220 218 222 223 220 219 216 218 220
357 284 290 274 181 207 236 239 223 221 232 240 262 271 259 270 260 269 257 257 204 210 209 207 209 213 214 219 220 216 214 213 217 218 220 222 219 221 222 220 219 216 214 213
315 301 273 255 310 297 246 241 217 213 220 236 222 241 275 283 290 278 261 235 237 226 213 208 215 217 216 218 219 214 210 211 216 221 219 223 222 220 221 219 219 218 214 213
267 294 281 282 303 247 272 275 246 235 255 226 256 309 332 311 294 283 270 242 249 241 224 215 218 218 214 215 215 212 209 205 209 216 216 217 222 219 218 217 219 219 217 215
216 225 240 247 247 295 258 51 88 150 132 29 335 326 331 330 309 285 258 239 243 247 236 219 219 219 205 211 210 206 206 206 207 213 211 209 215 213 211 213 214 215 216 215
179 230 249 178 237 239 220 123 209 187 209 9 346 332 334 330 284 276 356 291 253 236 214 220 215 215 202 208 206 206 205 203 202 207 206 206 212 210 208 209 211 213 215 215
169 186 214 220 243 247 6 323 283 198 104 329 336 324 325 312 285 297 305 322 250 209 210 207 209 207 204 192 196 197 201 200 198 201 205 205 208 209 209 210 211 212 213 214
232 203 201 208 221 242 6 323 302 356 326 317 321 320 314 309 304 298 290 295 255 215 196 189 184 182 184 189 191 194 199 195 200 204 204 206 207 209 211 212 213 217 217 218
238 258 260 249 195 71 31 67 16 342 318 329 320 323 321 312 311 302 275 234 229 197 182 183 188 191 188 194 198 199 198 194 201 208 208 209 211 211 213 213 215 219 224 225
225 345 257 283 135 331 283 151 356 342 326 324 324 319 323 316 320 287 128 109 112 93 104 129 177 199 206 208 211 213 212 204 205 210 212 213 213 214 218 218 221 224 226 226
296 320 290 271 281 331 154 357 342 331 330 334 331 328 327 326 324 291 124 106 100 92 81 82 85 73 310 244 232 226 221 220 215 213 218 218 217 216 218 220 223 226 228 231
239 259 238 278 83 326 295 316 328 332 338 341 333 332 338 337 346 205 126 106 100 97 88 78 68 61 25 262 251 245 232 229 224 219 221 222 221 221 221 224 226 230 232 235
Height
1496 1496 1497 1489 1492 1492 1496 1502 1502 1501 1502 1503 1500 1497 1500 1506 1509 1511 1513 1515 1518 1519 1524 1528 1532 1536 1539 1543 1546 1548 1552 1556 1559 1561 1563 1565 1566 1569 1570 1571 1573 1574 1576 1577
1495 1495 1489 1491 1492 1492 1495 1499 1499 1501 1503 1504 1502 1495 1493 1499 1500 1502 1506 1509 1512 1518 1520 1523 1527 1531 1534 1538 1542 1545 1548 1552 1556 1558 1561 1563 1565 1566 1569 1570 1571 1573 1574 1576
1488 1489 1490 1490 1494 1495 1495 1498 1498 1501 1504 1504 1505 1496 1492 1495 1497 1501 1503 1505 1510 1511 1514 1517 1521 1524 1529 1533 1536 1540 1544 1548 1552 1555 1558 1560 1562 1564 1567 1568 1570 1572 1573 1574
1487 1486 1488 1489 1492 1491 1498 1492 1494 1500 1503 1510 1503 1507 1490 1489 1492 1493 1495 1497 1500 1504 1508 1512 1515 1518 1521 1526 1532 1536 1540 1544 1548 1552 1554 1557 1560 1561 1564 1566 1568 1570 1572 1573
1486 1485 1486 1488 1486 1489 1493 1492 1495 1500 1502 1506 1506 1510 1485 1489 1490 1486 1487 1488 1492 1494 1499 1504 1508 1511 1515 1521 1526 1531 1535 1540 1543 1547 1551 1554 1557 1560 1562 1564 1566 1568 1570 1571
1481 1483 1481 1478 1485 1486 1493 1495 1499 1502 1504 1510 1497 1499 1478 1486 1476 1471 1475 1480 1483 1488 1493 1498 1502 1507 1511 1517 1521 1526 1530 1535 1539 1543 1547 1551 1554 1558 1561 1563 1565 1566 1568 1569
1486 1482 1480 1479 1486 1491 1491 1492 1510 1512 1513 1508 1505 1504 1473 1466 1466 1465 1465 1466 1471 1479 1485 1489 1495 1499 1504 1510 1514 1519 1524 1529 1535 1539 1543 1547 1551 1555 1559 1562 1563 1564 1566 1567
1488 1496 1479 1477 1478 1486 1488 1488 1500 1523 1512 1502 1508 1497 1469 1459 1460 1460 1460 1461 1464 1469 1475 1480 1484 1489 1496 1502 1508 1513 1517 1523 1529 1534 1538 1543 1548 1552 1555 1558 1561 1562 1564 1564
1488 1486 1472 1473 1473 1477 1491 1496 1483 1497 1513 1508 1490 1479 1461 1450 1452 1456 1456 1458 1459 1461 1465 1470 1477 1483 1489 1495 1501 1508 1513 1518 1524 1529 1534 1539 1544 1548 1552 1555 1558 1560 1561 1562
1469 1485 1471 1471 1473 1478 1477 1477 1495 1497 1513 1515 1492 1492 1475 1455 1449 1450 1452 1452 1454 1456 1461 1467 1472 1476 1482 1488 1496 1503 1508 1514 1519 1525 1530 1535 1540 1545 1549 1552 1555 1557 1559 1560
1467 1469 1473 1473 1471 1471 1481 1482 1487 1483 1488 1493 1496 1478 1450 1450 1444 1443 1447 1448 1449 1451 1454 1459 1464 1470 1476 1483 1490 1497 1502 1509 1515 1520 1526 1531 1536 1540 1545 1548 1551 1554 1556 1558
1464 1464 1473 1464 1464 1462 1458 1462 1465 1480 1488 1490 1487 1474 1441 1441 1441 1442 1443 1444 1445 1447 1452 1456 1460 1466 1471 1477 1484 1491 1497 1503 1509 1514 1520 1526 1532 1537 1541 1544 1547 1551 1553 1556
1463 1467 1472 1468 1466 1465 1462 1462 1458 1464 1473 1476 1480 1467 1441 1438 1439 1436 1437 1440 1442 1442 1448 1452 1457 1460 1464 1470 1478 1484 1491 1497 1504 1510 1516 1521 1527 1532 1536 1539 1543 1547 1550 1553
1461 1461 1458 1461 1456 1452 1459 1458 1458 1455 1466 1462 1465 1453 1433 1430 1431 1430 1432 1434 1437 1441 1444 1448 1452 1454 1459 1464 1470 1477 1485 1491 1498 1505 1511 1516 1522 1528 1532 1536 1539 1543 1547 1550
1462 1457 1461 1455 1456 1457 1451 1449 1456 1458 1449 1460 1443 1450 1432 1423 1425 1425 1429 1432 1433 1436 1440 1442 1445 1449 1454 1459 1465 1472 1479 1486 1492 1499 1505 1511 1517 1523 1528 1532 1535 1539 1543 1546
1464 1460 1462 1454 1452 1453 1453 1444 1444 1447 1447 1450 1447 1439 1422 1421 1423 1422 1421 1424 1429 1431 1432 1435 1440 1445 1449 1453 1459 1466 1473 1480 1487 1493 1500 1506 1511 1517 1523 1528 1532 1535 1539 1543
1468 1464 1462 1457 1453 1448 1450 1435 1434 1433 1429 1430 1441 1423 1419 1415 1417 1416 1416 1417 1419 1423 1426 1429 1432 1437 1442 1448 1453 1460 1468 1476 1483 1489 1495 1500 1506 1512 1517 1523 1527 1530 1534 1539
1469 1468 1466 1458 1453 1462 1426 1427 1427 1430 1426 1425 1420 1420 1424 1421 1416 1413 1412 1411 1412 1417 1421 1424 1428 1432 1438 1444 1451 1458 1465 1471 1479 1484 1490 1495 1501 1506 1512 1517 1521 1525 1529 1534
1468 1467 1464 1462 1454 1441 1425 1432 1433 1432 1438 1437 1434 1428 1424 1419 1413 1404 1403 1404 1407 1410 1415 1418 1423 1427 1435 1441 1447 1454 1461 1467 1474 1480 1485 1490 1496 1501 1506 1511 1516 1520 1524 1528
1463 1466 1464 1466 1461 1455 1422 1430 1430 1432 1433 1434 1436 1430 1425 1420 1413 1400 1401 1404 1402 1405 1409 1413 1418 1423 1430 1437 1443 1451 1457 1462 1468 1475 1480 1486 1491 1496 1501 1506 1512 1516 1520 1524
1459 1463 1463 1461 1454 1434 1432 1433 1432 1435 1434 1432 1432 1430 1427 1423 1417 1407 1404 1402 1402 1403 1406 1409 1412 1416 1424 1432 1439 1446 1452 1457 1464 1472 1477 1482 1487 1491 1497 1502 1507 1511 1515 1520
1448 1450 1452 1450 1456 1449 1437 1432 1431 1438 1434 1432 1428 1427 1422 1419 1412 1405 1403 1401 1402 1401 1402 1406 1410 1414 1421 1427 1434 1440 1444 1453 1461 1466 1472 1477 1482 1487 1492 1497 1502 1507 1511 1516
1454 1443 1440 1441 1432 1440 1441 1442 1442 1440 1435 1429 1426 1422 1419 1414 1409 1405 1403 1401 1402 1400 1402 1405 1410 1416 1419 1425 1430 1434 1440 1449 1455 1461 1467 1472 1476 1482 1486 1492 1497 1502 1507 1511
1449 1450 1443 1441 1439 1440 1441 1442 1441 1439 1434 1429 1424 1420 1416 1411 1408 1407 1406 1404 1403 1405 1405 1408 1412 1415 1420 1425 1429 1434 1439 1443 1449 1455 1460 1465 1471 1476 1481 1487 1491 1496 1499 1504
1454 1452 1444 1438 1437 1438 1439 1440 1441 1436 1432 1425 1421 1419 1414 1409 1407 1408 1408 1407 1403 1406 1407 1409 1413 1415 1419 1423 1427 1430 1434 1439 1443 1448 1454 1458 1464 1470 1474 1479 1482 1485 1490 1495
1452 1447 1445 1438 1444 1445 1442 1442 1439 1434 1429 1424 1420 1415 1412 1409 1406 1407 1406 1404 1402 1402 1405 1406 1409 1413 1417 1420 1424 1427 1431 1433 1438 1441 1445 1452 1457 1463 1469 1471 1475 1479 1483 1487